星链-4441 (STARLINK-4441 )

导读

STARLINK-4441是美国太空探索技术公司星链计划的卫星,于2022年8月12日发射升空,归属美国航天范畴,作为星链星座组网的组成部分,服务于全球卫星互联网通信项目,承担为全球偏远地区、海洋与空中等场景,提供低时延、广覆盖宽带互联网接入服务的功能,是星链大规模星座组网进程中的一颗组网卫星。

基本信息
目录编号:
53510
目录名称:
STARLINK-4441
国际标识:
2022-099AX
轨道中心:
EARTH
卫星名称:
星链-4441
卫星全名:
星链-4441 (STARLINK-4441 )
卫星状态:
已陨落 最后检测时间 2025-04-13
发射日期:
2022-08-12 UTC
国别 :
美国 (US)
星等 :
--
轨道信息
数据来源 国际轨道数据
星历时间: 2025-04-13T16:18:36+0800
轨道信息已过期430天
半长轴: 6568.051km
偏心率: 0.0010853
轨道倾角: 97.648°
近地点辐角 273.524°
升交点赤经 230.811°
平近点角 146.779°
近地点: 182.787km
远地点: 197.045km
周期: 88.291分钟
每日圈数: 16.309778
详细信息
固有亮度:
5
最大亮度:
2.5
卫星平台:
Starlink v1.5
覆盖范围:
全球
运营商:
太空探索技术公司
运营商所在国:
美国
制造商(研发单位):
太空探索技术公司
制造商所在国:
美国
使用方式:
暂无
卫星简介
星链(Starlink)计划是由太空探索技术公司(SpaceX)提出的一个巨型低轨卫星互联网星座项目,计划在2019年至2024年间在太空搭建由约1.2万颗卫星组成的“星链”网络,其中1584颗将部署在地球上空550千米处的近地轨道,并从2020年开始工作。该卫星仍在工作。